Terug naar catalogus

YAOGAN 24

ActiefMilitairSSO
NORAD 40310·PAYLOAD·🇨🇳 China

Gelanceerd Nov 20, 2014 vanaf Jiuquan Satellite Launch Center

Loading…

Volgende Passages (komende 24 uur)

TLE

VersSource: Space-Track

Epoch: Sep 14, 2026, 15:01 UTC

1 40310U 14072A   26257.62572616  .00000629  00000-0  98585-4 0  9995
2 40310  98.1621  35.7741 0014090 343.5588  16.5162 14.76181937636917

Volg YAOGAN 24 in realtime met AllMySat

Download on the App Store